This is the latest recevied weather packets stored in our database for station/object KC3AWA. If no packets are shown the sender has not sent any weather packets the latest 10 day(s).
| Time | Temp. | Humidity | Pressure | Rain* | Wind** | Luminosity | Snow |
|---|---|---|---|---|---|---|---|
| 1777833631 | 14.44° C | 40% | 1014.8 hPa | 0 mm | - | 884 W/m² | - |
| 1777833328 | 14.44° C | 41% | 1014.7 hPa | 0 mm | - | 856 W/m² | - |
| 1777833025 | 13.89° C | 39% | 1015 hPa | 0 mm | - | 759 W/m² | - |
| 1777832724 | 12.78° C | 40% | 1015 hPa | 0 mm | - | 917 W/m² | - |
| 1777832421 | 12.78° C | 39% | 1015.1 hPa | 0 mm | - | 457 W/m² | - |
| 1777832118 | 12.78° C | 40% | 1015 hPa | 0 mm | - | 242 W/m² | - |
| 1777831814 | 13.89° C | 39% | 1015.3 hPa | 0 mm | - | 273 W/m² | - |
| 1777831512 | 13.89° C | 43% | 1015.2 hPa | 0 mm | - | 360 W/m² | - |
| 1777831209 | 13.89° C | 38% | 1015.5 hPa | 0 mm | - | 975 W/m² | - |
| 1777830907 | 13.89° C | 39% | 1015.4 hPa | 0 mm | - | 235 W/m² | - |
| 1777830603 | 13.89° C | 37% | 1015.2 hPa | 0 mm | - | 939 W/m² | - |
| 1777830301 | 14.44° C | 37% | 1015.2 hPa | 0 mm | - | 938 W/m² | - |
| 1777829996 | 13.89° C | 42% | 1015.4 hPa | 0 mm | - | 959 W/m² | - |
| 1777829692 | 13.33° C | 39% | 1015.5 hPa | 0 mm | - | 937 W/m² | - |
| 1777829388 | 13.89° C | 40% | 1015.4 hPa | 0 mm | - | 905 W/m² | - |
| 1777829086 | 13.33° C | 43% | 1015.4 hPa | 0 mm | - | 862 W/m² | - |
| 1777828782 | 12.22° C | 44% | 1015.4 hPa | 0 mm | - | 865 W/m² | - |
| 1777828479 | 13.33° C | 39% | 1015.6 hPa | 0 mm | - | 225 W/m² | - |
| 1777828177 | 13.33° C | 37% | 1015.8 hPa | 0 mm | - | 922 W/m² | - |
| 1777827873 | 12.78° C | 40% | 1015.6 hPa | 0 mm | - | 871 W/m² | - |
| 1777827570 | 12.78° C | 38% | 1016.1 hPa | 0 mm | - | 433 W/m² | - |
| 1777827268 | 12.78° C | 39% | 1015.8 hPa | 0 mm | - | 827 W/m² | - |
| 1777826963 | 12.78° C | 39% | 1015.7 hPa | 0 mm | - | 756 W/m² | - |
| 1777826661 | 13.33° C | 39% | 1015.7 hPa | 0 mm | - | 844 W/m² | - |
| 1777826357 | 11.67° C | 43% | 1015.7 hPa | 0 mm | - | 846 W/m² | - |
* Rain latest hour (hover to see other rain measurements)
** Current wind speed in m/s (hover to see current wind gust speed)